Regional Weather Roundup
Issued by NWS San Angelo, TX

Home | Current Version | Previous Version | Text Only | Print | Product List | Glossary On
Versions: 1 2 3 4 5 6 7 8 9 10 11 12 13 14 15 16 17 18 19 20 21 22 23 24 25 26 27 28 29 30 31 32 33 34 35 36 37 38 39 40 41 42 43 44 45 46 47 48 49 50
000
ASUS44 KSJT 281110
RWRSJT
WEST CENTRAL TEXAS REGIONAL WEATHER ROUNDUP
NATIONAL WEATHER SERVICE SAN ANGELO TX
600 AM CDT SAT MAR 28 2015

NOTE: "FAIR" INDICATES FEW OR NO CLOUDS BELOW 12,000 FEET WITH NO
SIGNIFICANT WEATHER AND/OR OBSTRUCTIONS TO VISIBILITY.

TXZ049-054-064>066-071>073-076>078-098-099-113-114-127-128-139-140-
154-155-168>170-281200
...LOCATIONS ACROSS WEST CENTRAL TEXAS...

CITY           SKY/WX    TMP DP  RH WIND       PRES   REMARKS
SAN ANGELO     CLEAR     58  35  42 SW14      30.07S
ABILENE        CLEAR     55  37  50 SE12      30.07S
DYESS AFB      CLEAR     53  38  56 S10       30.04F
JUNCTION       CLEAR     45  38  76 CALM      30.11S
SWEETWATER     CLEAR     58  34  40 S12       30.08F
BROWNWOOD      CLEAR     41  39  93 CALM      30.11S
COLEMAN        SUNNY     45  40  84 CALM      30.10S
SONORA         CLEAR     48  37  66 MISG      30.16R
OZONA          FAIR      50  36  57 S6        30.13S
BRADY          CLEAR     55  36  47 S7        30.09S
$$

TEXAS PANHANDLE/OKLAHOMA PANHANDLE

CITY           SKY/WX    TMP DP  RH WIND       PRES   REMARKS
AMARILLO       CLEAR     44  35  70 S10       30.05F WCI  39
BORGER         CLEAR     48  34  58 W6        30.03F
CANADIAN       CLEAR     48  39  70 NW3       30.01F
DALHART        CLEAR     42  30  62 W8        30.07F WCI  37
DUMAS          SUNNY     38  28  67 W9        30.05S WCI  32
GUYMON         NOT AVBL
HEREFORD       SUNNY     35  30  82 CALM      30.05F
PAMPA          SUNNY     46  36  68 SW7       30.03S
PERRYTON       CLEAR     48  35  60 W14       30.01S
$$

SOUTHERN PANHANDLE/SOUTH PLAINS/ROLLING PLAINS

CITY           SKY/WX    TMP DP  RH WIND       PRES   REMARKS
LUBBOCK        CLEAR     42  35  76 SE7       30.03F WCI  38
SNYDER         CLEAR     51  35  52 S9        30.06S
CHILDRESS      CLEAR     43  38  82 CALM      30.04F
SEMINOLE       SUNNY     47  35  64 W9        30.07S
$$

PERMIAN BASIN

CITY           SKY/WX    TMP DP  RH WIND       PRES   REMARKS
MIDLAND        CLEAR     53  37  54 S7        30.06S
ODESSA         CLEAR     51  35  54 SW6       30.07S
WINK           CLEAR     47  36  65 SE7       30.05F
$$

FAR WEST/SOUTHWEST MOUNTAINS/TRANS PECOS

CITY           SKY/WX    TMP DP  RH WIND       PRES   REMARKS
ALPINE         SUNNY     51  28  41 SW8       30.24S
DRYDEN           N/A     51  40  65 N7        30.09S
EL PASO        CLEAR     54  22  28 SE8       30.12S
FORT STOCKTON  CLEAR     57  31  37 SW15      30.08S
GUADALUPE PASS CLEAR     56  18  22 SW16      30.19F
MARFA          CLEAR     36  28  75 N5        30.22S WCI  32
PECOS          SUNNY     45  37  73 CALM      30.06S
$$

DALLAS/FORT WORTH METROPLEX

CITY           SKY/WX    TMP DP  RH WIND       PRES   REMARKS
DFW AIRPORT    PTCLDY    47  38  71 SE6       30.08S
FTW MEACHAM    CLEAR     48  39  71 SE6       30.08R
DAL-EXECUTIVE  CLEAR     44  39  82 SE5       30.09S
GRAND PRAIRIE  NOT AVBL
ADDISON        CLEAR     50  37  62 SE10      30.09F
MESQUITE       SUNNY     44  39  84 SE3       30.10S
LANCASTER      SUNNY     42  37  83 CALM      30.11R
$$

NORTH CENTRAL TEXAS

CITY           SKY/WX    TMP DP  RH WIND       PRES   REMARKS
SHRMAN/DENISON SUNNY     48  40  75 S8        30.08R
GAINESVILLE    CLEAR     44  40  86 S8        30.09S WCI  39
BRIDGEPORT     SUNNY     44  41  89 CALM      30.08F
DENTON         CLEAR     43  40  89 S6        30.08S WCI  39
WAXAHACHIE     SUNNY     45  40  83 SE5       30.11R
GRANBURY         N/A     50  42  72 S5        30.10S
$$

WESTERN NORTH TEXAS

CITY           SKY/WX    TMP DP  RH WIND       PRES   REMARKS
WICHITA FALLS  CLEAR     44  39  82 SE8       30.03S WCI  39
VERNON         FAIR      44  36  74 CALM      30.04S
BRECKENRIDGE   SUNNY     53  41  63 S10       30.06S
COMANCHE       CLEAR     48  43  84 S8        30.10F
$$

CENTRAL AND SOUTH CENTRAL TEXAS

CITY           SKY/WX    TMP DP  RH WIND       PRES   REMARKS
AUSTIN/BERGSTM CLEAR     42  41  96 CALM      30.13R
WACO           CLEAR     46  40  79 S8        30.11F
HILLSBORO      SUNNY     45  38  77 S5        30.11R
TEMPLE         CLEAR     46  37  71 CALM      30.11S
KILLEEN-GRAY   CLEAR     52  42  70 S7        30.11S HAZE
FORT HOOD      CLEAR     50  42  74 SE6       30.11S
GEORGETOWN     CLEAR     45  39  81 CALM      30.12S
LAGO VISTA     FAIR      54  42  65 E3        30.13S
SAN MARCOS     CLEAR     46  39  76 CALM      30.14R
NEW BRAUNFELS  CLEAR     51  41  68 CALM      30.12R
RANDOLPH AFB   CLEAR     57  39  51 SW6       30.13R
SAN ANTONIO    CLEAR     58  40  51 W7        30.13S
STINSON        CLEAR     49  43  80 CALM      30.12S
PLEASANTON     NOT AVBL
LA GRANGE      CLEAR     49  47  92 CALM      30.12S
GIDDINGS       SUNNY     50  43  78 CALM      30.17S
$$

EAST TEXAS

CITY           SKY/WX    TMP DP  RH WIND       PRES   REMARKS
PARIS          NOT AVBL
CLARKSVILLE    NOT AVBL
TYLER          CLEAR     47  36  65 E8        30.11F
LONGVIEW       CLEAR     45  39  79 SE8       30.11F
PALESTINE      SUNNY     49  38  66 SE5       30.12S
NACOGDOCHES    MOCLDY    39  37  93 CALM      30.14S
$$

TEXAS HILL COUNTRY AND EDWARDS PLATEAU

CITY           SKY/WX    TMP DP  RH WIND       PRES   REMARKS
LLANO          SUNNY     45  41  87 CALM      30.15R
HORSESHOE BAY  FAIR      46  41  83 S3        30.12S
KERRVILLE      CLEAR     44  39  85 CALM      30.13S
FREDERICKSBRG  CLEAR     47  36  67 W3        30.12S
ROCKSPRINGS    NOT AVBL
HONDO          CLEAR     43  38  82 NW5       30.16R
UVALDE         SUNNY     46  40  80 NE3       30.14S
DEL RIO        CLEAR     54  40  59 E10       30.09F
$$

SOUTHEAST TEXAS

CITY           SKY/WX    TMP DP  RH WIND       PRES   REMARKS
COLLEGE STN    CLEAR     52  42  69 SE3       30.14R
CALDWELL       SUNNY     50  45  81 CALM      30.17R
CROCKETT       SUNNY     46  43  87 CALM      30.17R
BRENHAM        CLEAR     51  47  85 CALM      30.15R
HUNTSVILLE     FAIR      47  42  83 CALM      30.15R
CONROE         CLEAR     43  41  93 CALM      30.15R
HOUSTON BUSH   CLEAR     51  44  77 CALM      30.14R
HOUSTON HOBBY  CLEAR     56  45  66 CALM      30.14R
PERLAND        CLEAR     52  48  86 CALM      30.15R
WHARTON        SUNNY     49  49  99 CALM      30.15R FOG
$$

THE UPPER TEXAS COAST

CITY           SKY/WX    TMP DP  RH WIND       PRES   REMARKS
ORANGE         SUNNY     47  43  86 CALM      30.17R
PORT ARTHUR    CLEAR     53  44  71 NE6       30.15R
GALVESTON      CLEAR     60  53  77 E7        30.15R
ANGLETON       CLEAR     50  50 100 CALM      30.14R
BAY CITY       SUNNY     52  52 100 CALM      30.14R
$$

TEXAS COASTAL BEND, RIO GRANDE PLAINS DEEP SOUTH TEXAS

CITY           SKY/WX    TMP DP  RH WIND       PRES   REMARKS
VICTORIA       CLEAR     55  50  83 SW7       30.14R
BEEVILLE       FAIR      53  44  71 SW6       30.14R
ROCKPORT         N/A     58  52  80 SW7       30.14R
PORT ARANSAS   SUNNY     59  54  82 SW7       30.14R
PORT LAVACA    NOT AVBL
CORPUS CHRISTI CLEAR     54  50  86 SW6       30.14S
KINGSVILLE NAS   N/A     50  47  89 SW7       30.16R
COTULLA        CLEAR     51  43  74 SE5       30.13S
LAREDO         CLEAR     54  43  66 SE9       30.16R
BROWNSVILLE    CLEAR     54  52  93 CALM      30.17R
PORT ISABEL    CLEAR     53  51  93 SW6       30.16R
HEBBRONVILLE   NOT AVBL
MCALLEN        CLEAR     54  49  83 SE6       30.16S
WESLACO        CLEAR     54  49  86 S5        30.17R
FALFURRIAS     SUNNY     51  47  87 CALM      30.15R
EDINBURG       SUNNY     55  51  87 S5        30.16S
$$


USA.gov is the U.S. government's official web portal to all federal, state and local government web resources and services.